Location: Juzet
(42.9779°N, 0.7597°E)
Time: 01:42:36
(UTC+00:00)

ATLAS 2A CENTAUR R/B - Pass Details

Date: 14 July 2020
Orbit: 276 x 15882 km, 26.8° (Epoch: 04 August)

Event Time Altitude Azimuth Distance (km) Brightness Sun altitude
Exits shadow 03:25:50 11° 208° (SSW) 2,695 4.7 -10.3°
Maximum altitude 03:26:51 11° 198° (SSW) 2,400 4.5 -10.2°
Drops below altitude 10° 03:28:20 10° 179° (S) 2,117 4.4 -10.0°
Sets 03:31:21 0° 138° (SE) 2,331 5.0 -9.6°
